Regional Weather Roundup
Issued by NWS

Home | Current Version | Previous Version | Graphics & Text | Print | Product List | Glossary On
Versions: 1 2 3 4 5 6 7 8 9 10 11 12 13 14 15 16 17 18 19 20 21 22 23 24 25 26 27 28 29 30 31 32 33 34 35 36 37 38 39 40 41 42 43 44 45 46 47 48 49 50
000
ASUS45 KCYS 130310
RWRWY

WYOMING REGIONAL WEATHER ROUNDUP
NATIONAL WEATHER SERVICE CHEYENNE WY
800 PM MST FRI FEB 12 2016

NOTE:  "FAIR" INDICATES FEW OR NO CLOUDS BELOW 12,000 FEET
WITH NO SIGNIFICANT WEATHER AND/OR OBSTRUCTIONS TO VISIBILITY.

WYZ001-130400-
YELLOWSTONE NATIONAL PARK

CITY           SKY/WX    TMP DP  RH WIND       PRES   REMARKS
LK YELLOWSTONE   N/A     28  19  69 CALM      30.28S
W YELLOWSTONE  NOT AVBL

$$
WYZ002>013-054>058-071-098>099-130400-
NORTHERN WYOMING

CITY           SKY/WX    TMP DP  RH WIND       PRES   REMARKS
JACKSON        CLEAR     41  16  36 CALM      30.25R
CODY           FAIR      37  23  56 CALM      30.11S
GREYBULL       FAIR      40  28  62 SE6       30.10F
WORLAND        FAIR      36  29  75 NE3       30.11S
SHERIDAN       FAIR      34  28  79 CALM      30.11F
BUFFALO        FAIR      37  29  72 S3        30.12F
GILLETTE       MOCLDY    34  29  82 S22       30.14S WCI  22
HULETT         CLOUDY    30  27  86 CALM      30.18F FOG
NEWCASTLE      FAIR      30  27  86 SE10      30.24F WCI  21

$$
WYZ014>020-022>026-101>103-130400-
CENTRAL WYOMING

CITY           SKY/WX    TMP DP  RH WIND       PRES   REMARKS
BIG PINEY      FAIR      29  24  82 E5        30.28S WCI  24
PINEDALE         N/A     28  27  93 W3        30.29F
DUBOIS         FAIR      37  14  38 NW17      30.21R WCI  28
LANDER         FAIR      36  27  69 CALM      30.14S
RIVERTON       FAIR      39  28  64 E3        30.15S
CASPER         FAIR      39  28  64 SE5       30.15F
DOUGLAS        FAIR      34  30  85 SE14      30.19F WCI  25

$$
WYZ021-027>030-104>119-130400-
SOUTHERN WYOMING

CITY           SKY/WX    TMP DP  RH WIND       PRES   REMARKS
EVANSTON       FAIR      39  16  39 SW6       30.29F WCI  35
KEMMERER       FAIR      32  18  55 SW5       30.30S WCI  27
FORT BRIDGER   CLEAR     39  19  45 W12       30.31F WCI  32
ROCK SPRINGS   FAIR      36  19  50 SW10      30.27F WCI  28
DIXON          FAIR      23  17  77 NE3       30.34F
RAWLINS        FAIR      39  22  50 SW15      30.26R WCI  31
SARATOGA       FAIR      37  27  65 S18       30.28F WCI  27
LARAMIE        FAIR      42  19  39 SW17      30.23S
CHEYENNE       FAIR      34  28  79 S9        30.23F WCI  27
TORRINGTON     CLOUDY    33  30  88 SE15      30.24F WCI  23
PINE BLUFFS    CLOUDY    32  32 100 S7        30.26S FOG     WCI  26

$$



USA.gov is the U.S. government's official web portal to all federal, state and local government web resources and services.